• Join FlightAware (Why Join?)
  • Login
  • US Flag 
10:51AM EST


 

Airport Tracker/Info


-or-


 

Live Flight TrackerFlight Track Log ✈ SWA864 ✈ 25-May-2013 ✈ KMCO - KSTL

Flight Track Log - Related Links

Times and Time Zones

All times are in EDT time to prevent confusion due to time zone crossing. See the SWA864 flight status page for this flight to view local times or setup timezone preferences in your user account.

Time Position Orientation Groundspeed Altitude Reporting Facility
EDT Latitude Longitude Course Direction KTS MPH feet Rate Location/Type
07:36PM 28.4667 -81.3000 360° North 195 224 1,800  Level Orlando TRACON
07:37PM 28.5333 -81.3333 336° Northwest 261 300 4,400 2,460 Climbing Orlando TRACON
07:38PM 28.5167 -81.4167 257° West 279 321 7,300 3,060 Climbing Orlando TRACON
07:39PM 28.5000 -81.5167 259° West 305 351 10,600 2,880 Climbing Orlando TRACON
07:41PM 28.4619 -81.7425 259° West 365 420 16,200 2,640 Climbing Jacksonville Center
07:42PM 28.4442 -81.8608 260° West 377 434 18,700 2,460 Climbing Jacksonville Center
07:43PM 28.4450 -81.9836 270° West 389 448 21,200 2,460 Climbing Jacksonville Center
07:44PM 28.4439 -82.1133 269° West 405 466 23,700 2,340 Climbing Jacksonville Center
07:45PM 28.4406 -82.2481 268° West 416 479 25,900 2,100 Climbing Jacksonville Center
07:46PM 28.4828 -82.3683 292° West 417 480 27,900 1,860 Climbing Jacksonville Center
07:47PM 28.5872 -82.4364 330° Northwest 388 447 29,700 2,040 Climbing Jacksonville Center
07:48PM 28.6856 -82.5092 327° Northwest 406 467 32,000 2,100 Climbing Jacksonville Center
07:49PM 28.7694 -82.5728 326° Northwest 406 467 33,900 1,800 Climbing Jacksonville Center
07:50PM 28.8656 -82.6461 326° Northwest 412 474 35,700 1,500 Climbing Jacksonville Center
07:51PM 28.9594 -82.7169 327° Northwest 407 468 37,000 1,140 Climbing Jacksonville Center
07:52PM 29.0578 -82.7881 328° Northwest 412 474 38,000 480 Climbing Jacksonville Center
07:53PM 29.1497 -82.8569 327° Northwest 412 474 38,000  Level Jacksonville Center
07:54PM 29.2436 -82.9258 327° Northwest 412 474 38,000  Level Jacksonville Center
07:55PM 29.3353 -82.9928 328° Northwest 406 467 38,000  Level Jacksonville Center
07:56PM 29.4292 -83.0642 326° Northwest 401 461 38,000  Level Jacksonville Center
07:57PM 29.5333 -83.1431 327° Northwest 409 471 38,000  Level Jacksonville Center
07:58PM 29.6272 -83.2128 327° Northwest 406 467 38,000  Level Jacksonville Center
07:59PM 29.7169 -83.2847 325° Northwest 401 461 38,000  Level Jacksonville Center
08:00PM 29.8106 -83.3522 328° Northwest 401 461 38,000  Level Jacksonville Center
08:01PM 29.9064 -83.4244 327° Northwest 406 467 38,000  Level Jacksonville Center
08:02PM 30.0000 -83.4947 327° Northwest 406 467 38,000  Level Jacksonville Center
08:03PM 30.0936 -83.5647 327° Northwest 406 467 38,000  Level Jacksonville Center
08:04PM 30.1872 -83.6350 327° Northwest 401 461 38,000  Level Jacksonville Center
08:05PM 30.2806 -83.7056 327° Northwest 401 461 38,000  Level Jacksonville Center
08:06PM 30.3761 -83.7786 327° Northwest 401 461 38,000  Level Jacksonville Center
08:07PM 30.4697 -83.8494 327° Northwest 401 461 38,000  Level Jacksonville Center
08:08PM 30.5589 -83.9203 326° Northwest 394 453 38,000  Level Jacksonville Center
08:09PM 30.6542 -83.9936 326° Northwest 394 453 38,000  Level Jacksonville Center
08:10PM 30.7456 -84.0672 325° Northwest 400 460 38,000  Level Jacksonville Center
08:11PM 30.8408 -84.1386 327° Northwest 395 455 38,000  Level Jacksonville Center
08:12PM 30.9361 -84.2150 325° Northwest 395 455 38,000  Level Jacksonville Center
08:14PM 31.1097 -84.3517 326° Northwest 395 455 38,000  Level Atlanta Center
08:15PM 31.2056 -84.4247 327° Northwest 395 455 38,000  Level Atlanta Center
08:16PM 31.2992 -84.5006 325° Northwest 395 455 38,000  Level Atlanta Center
08:17PM 31.3928 -84.5739 326° Northwest 395 455 38,000  Level Atlanta Center
08:18PM 31.4842 -84.6453 326° Northwest 395 455 38,000  Level Atlanta Center
08:19PM 31.5819 -84.7214 326° Northwest 405 466 38,000  Level Atlanta Center
08:20PM 31.6753 -84.7978 325° Northwest 405 466 38,000  Level Atlanta Center
08:21PM 31.7689 -84.8742 325° Northwest 405 466 38,000  Level Atlanta Center
08:22PM 31.8686 -84.9486 328° Northwest 410 472 38,000  Level Atlanta Center
08:23PM 31.9578 -85.0253 324° Northwest 410 472 38,000  Level Atlanta Center
08:24PM 32.0553 -85.0975 328° Northwest 410 472 38,000  Level Atlanta Center
08:25PM 32.1464 -85.1697 326° Northwest 405 466 38,000  Level Atlanta Center
08:26PM 32.2394 -85.2444 326° Northwest 405 466 38,000  Level Atlanta Center
08:27PM 32.3347 -85.3197 326° Northwest 405 466 38,000  Level Atlanta Center
08:28PM 32.4281 -85.3947 326° Northwest 405 466 38,000  Level Atlanta Center
08:29PM 32.5231 -85.4725 325° Northwest 405 466 38,000  Level Atlanta Center
08:30PM 32.6286 -85.5533 327° Northwest 412 474 38,000  Level Atlanta Center
08:31PM 32.7217 -85.6314 325° Northwest 412 474 38,000  Level Atlanta Center
08:32PM 32.8164 -85.7097 325° Northwest 417 480 38,000  Level Atlanta Center
08:33PM 32.9136 -85.7883 326° Northwest 422 486 38,000  Level Atlanta Center
08:34PM 33.0083 -85.8669 325° Northwest 422 486 38,000  Level Atlanta Center
08:35PM 33.1033 -85.9458 325° Northwest 422 486 38,000  Level Atlanta Center
08:36PM 33.1981 -86.0247 325° Northwest 417 480 38,000  Level Atlanta Center
08:37PM 33.2906 -86.1014 325° Northwest 417 480 38,000  Level Atlanta Center
08:38PM 33.3833 -86.1808 324° Northwest 412 474 38,000  Level Atlanta Center
08:39PM 33.4778 -86.2578 326° Northwest 417 480 38,000  Level Atlanta Center
08:40PM 33.5703 -86.3350 325° Northwest 417 480 38,000  Level Atlanta Center
08:41PM 33.6525 -86.4044 325° Northwest 404 465 38,000  Level Atlanta Center
08:42PM 33.7450 -86.4844 324° Northwest 409 471 38,000  Level Atlanta Center
08:43PM 33.8436 -86.5650 326° Northwest 419 482 38,000  Level Atlanta Center
08:44PM 33.9419 -86.6456 326° Northwest 419 482 38,000  Level Atlanta Center
08:45PM 34.0361 -86.7286 324° Northwest 419 482 38,000  Level Atlanta Center
08:46PM 34.1881 -86.8569 325° Northwest 423 487 38,000  Level Memphis Center
08:47PM 34.2953 -86.9581 322° Northwest 428 493 38,000  Level Memphis Center
08:48PM 34.3892 -87.0350 326° Northwest 428 493 38,000  Level Memphis Center
08:49PM 34.4850 -87.1169 325° Northwest 423 487 38,000  Level Memphis Center
08:50PM 34.5769 -87.1967 324° Northwest 411 473 38,000  Level Memphis Center
08:51PM 34.6706 -87.2764 325° Northwest 411 473 38,000  Level Memphis Center
08:52PM 34.7644 -87.3564 325° Northwest 419 482 38,000  Level Memphis Center
08:53PM 34.8603 -87.4392 325° Northwest 420 483 38,000  Level Memphis Center
08:54PM 34.9519 -87.5194 324° Northwest 415 478 38,000  Level Memphis Center
08:55PM 35.0350 -87.5928 324° Northwest 415 478 38,000  Level Memphis Center
08:56PM 35.1369 -87.6783 326° Northwest 415 478 38,000  Level Memphis Center
08:57PM 35.2306 -87.7617 324° Northwest 415 478 38,000  Level Memphis Center
08:58PM 35.3261 -87.8428 325° Northwest 415 478 38,000  Level Memphis Center
08:59PM 35.4047 -87.9192 322° Northwest 415 478 38,000  Level Memphis Center
09:00PM 35.5000 -88.0006 325° Northwest 415 478 38,000  Level Memphis Center
09:01PM 35.5997 -88.0922 323° Northwest 415 478 38,000  Level Memphis Center
09:02PM 35.6844 -88.1589 327° Northwest 410 472 38,000  Level Memphis Center
09:03PM 35.7778 -88.2408 325° Northwest 410 472 38,000  Level Memphis Center
09:04PM 35.8708 -88.3231 324° Northwest 410 472 38,000  Level Memphis Center
09:05PM 35.9639 -88.4106 323° Northwest 410 472 38,000  Level Memphis Center
09:06PM 36.0569 -88.4931 324° Northwest 416 479 38,000  Level Memphis Center
09:07PM 36.1500 -88.5758 324° Northwest 416 479 38,000  Level Memphis Center
09:08PM 36.2450 -88.6611 324° Northwest 416 479 38,000  Level Memphis Center
09:09PM 36.3378 -88.7494 323° Northwest 416 479 38,000  Level Memphis Center
09:10PM 36.4306 -88.8300 325° Northwest 416 479 38,000  Level Memphis Center
09:11PM 36.5233 -88.9136 324° Northwest 416 479 38,000  Level Memphis Center
09:12PM 36.6181 -89.0022 323° Northwest 416 479 38,000 -180 Level Memphis Center
09:13PM 36.7086 -89.0886 323° Northwest 416 479 37,700 -900 Descending Memphis Center
09:14PM 36.8011 -89.1753 323° Northwest 416 479 36,200 -2,040 Descending Memphis Center
09:15PM 36.8936 -89.2597 324° Northwest 416 479 33,700 -2,280 Descending Memphis Center
09:16PM 36.9819 -89.3442 323° Northwest 416 479 31,700 -2,040 Descending Memphis Center
09:17PM 37.0681 -89.4261 323° Northwest 410 472 29,700 -2,100 Descending Memphis Center
09:19PM 37.1686 -89.5172 324° Northwest 393 452 27,200 -1,740 Descending Kansas City Center
09:20PM 37.2533 -89.5917 325° Northwest 385 443 26,000 -600 Descending Kansas City Center
09:21PM 37.3469 -89.6406 337° Northwest 371 427 26,000  Level Kansas City Center
09:22PM 37.4422 -89.6892 338° Northwest 368 423 26,000  Level Kansas City Center
09:23PM 37.5361 -89.7422 336° Northwest 370 426 26,000  Level Kansas City Center
09:24PM 37.6283 -89.7922 337° Northwest 371 427 26,000  Level Kansas City Center
09:25PM 37.7292 -89.8489 336° Northwest 390 449 26,000 -840 Level Kansas City Center
09:26PM 37.8472 -89.9136 337° Northwest 389 448 24,300 -1,920 Descending Kansas City Center
09:27PM 37.9475 -89.9675 337° Northwest 383 441 22,100 -2,100 Descending Kansas City Center
09:28PM 38.0406 -90.0200 336° Northwest 368 423 20,100 -1,920 Descending Kansas City Center
09:29PM 38.1286 -90.0683 337° Northwest 355 409 18,200 -1,680 Descending Kansas City Center
09:30PM 38.2125 -90.1161 336° Northwest 344 396 16,700 -1,740 Descending Kansas City Center
09:31PM 38.2961 -90.1633 336° Northwest 335 386 14,700 -2,040 Descending Kansas City Center
09:32PM 38.3761 -90.2081 336° Northwest 326 375 12,600 -1,980 Descending Kansas City Center
09:33PM 38.4558 -90.2528 336° Northwest 317 365 10,700 -1,320 Descending Kansas City Center
09:34PM 38.5319 -90.2947 337° Northwest 310 357 10,000 -960 Descending Kansas City Center
09:35PM 38.5983 -90.3328 336° Northwest 295 339 8,800 -1,080 Descending Kansas City Center
09:36PM 38.6519 -90.3731 330° Northwest 268 308 7,900 -1,080 Descending Kansas City Center
09:37PM 38.6833 -90.4333 304° West 222 255 6,800 -1,380 Descending Gateway (St. Louis) TRACON
09:38PM 38.7167 -90.5000 303° West 211 243 5,400 -1,680 Descending Gateway (St. Louis) TRACON
09:39PM 38.7500 -90.5500 311° West 220 253 3,700 -1,680 Descending Gateway (St. Louis) TRACON
09:39PM 38.7606 -90.5492 North 218 251 3,500 -1,140 Descending Kansas City Center
09:40PM 38.8003 -90.5078 39° Northeast 204 235 2,300 -840 Descending Kansas City Center
09:41PM 38.7919 -90.4550 101° East 173 199 1,900 -600 Descending Kansas City Center
09:42PM 38.7714 -90.4153 124° Southeast 147 169 1,200 -720 Descending Kansas City Center
09:43PM 38.7528 -90.3764 122° Southeast 134 154 500 -720 Descending Kansas City Center